STARLINK-2269 (48447 NORAD) Tracking and Keplerian Element Data

This shows tracking and keplerian element data for the satellite.

Feedback or suggestion? Click here.




ElementValue
Catalog48447
NameSTARLINK-2269
Epoch Orbit367
Epoch Day214.91667824
Epoch Year2021
RAAN162.8293
Inclination53.048
Eccentricity0.0001399
Argument of Perigee65.0634
Mean Anonmoly244.8246
Mean Motion15.21255907
Decay Rate-0.00835148
L11 48447U 21040V 21214.91667824 -.00835148 00000-0 -40040-1 0 9997
L22 48447 53.0480 162.8293 0001399 65.0634 244.8246 15.21255907 3679

Live tracking and technical data element details for STARLINK-2269 (NORAD 48447). STARLINK-2269 can be tracked NOW for your location showing map with azimuth and elevation plus other details from your city location.

Track the satellite on the map from your city or location and see movement details for azimuth, elevation, latitude, longitude, range, height, and movement on the map or in text.







IsCatalogInMostPopularTable: catalog: 48447, numindb: 28
Update: records affected: 1



GetName: 48447 STARLINK-2269

Hit Count: updated at: Tue, 03 Aug 2021 23:12:57 GMT